Flag for Ireland Weather past 2 weeks in Letterkenny, Ireland

Now
44 °F

Quite cool.


Feels Like: 38 °F
Forecast: 34 / 58 °F
Wind: 9 mph from East

Location: Castlederg

Current Time: Apr 18, 2015 at 9:23:55 AM

Latest Report: Apr 18, 2015 at 8:00 AM


Visibility: 17 mi

Pressure: 30.44 "Hg

Humidity: 90%

Dew point: 41 °F

Location of LetterkennyLocation

Historic Weather in Letterkenny — Graph

°F

Letterkenny temperature yesterday

Maximum temperature yesterday: 60 °F (at 2:00 PM)
Minimum temperature yesterday: 41 °F (at 11:00 PM)
Average temperature yesterday: 49 °F

Past Weeks' High & Low Weather Summary

 TemperatureHumidityPressure
High64 °F (Apr 8, 4:00 PM)99% (Apr 6, 10:00 AM)30.65 "Hg (Apr 6, 10:00 AM)
Low29 °F (Apr 16, 7:00 AM)42% (Apr 10, 4:00 PM)29.62 "Hg (Apr 10, 7:00 PM)
Average47 °F80%30.20 "Hg
* Reported Apr 3 8:00 AM — Apr 18 8:00 AM, Letterkenny, Weather by CustomWeather, © 2015

Note: Actual official high and low records may vary slightly from our data, if they occured in-between our weather recording intervals... More about our weather records

Advertising

Letterkenny weather history for previous 24 hours

 ConditionsComfort  
Time TempWeatherWind HumidityBarometerVisibility
8:00 AM
Sat, Apr 18
44 °FQuite cool.9 mph90%30.44 "Hg17 mi
7:00 AM38 °FChilly.2 mph94%30.44 "Hg14 mi
6:00 AM38 °FChilly.2 mph91%30.42 "Hg11 mi
5:00 AM40 °FChilly.8 mph92%30.42 "Hg13 mi
4:00 AM38 °FChilly.7 mph94%30.41 "Hg12 mi
3:00 AM36 °FChilly.1 mph95%30.41 "Hg7 mi
2:00 AM35 °FFog.2 mph94%30.40 "Hg6 mi
1:00 AM36 °FSmoke.1 mph92%30.39 "Hg6 mi
12:00 AM42 °FQuite cool.5 mph85%30.37 "Hg12 mi
11:00 PM
Fri, Apr 17
41 °FQuite cool.1 mph85%30.36 "Hg9 mi
10:00 PM44 °FQuite cool.5 mph79%30.34 "Hg12 mi
9:00 PM46 °FCool.6 mph73%30.31 "Hg16 mi
8:00 PM51 °FCool.7 mph65%30.29 "Hg15 mi
7:00 PM54 °FCool.14 mph57%30.26 "Hg16 mi
6:00 PM58 °FRefreshingly cool.13 mph57%30.22 "Hg14 mi
5:00 PM58 °FRefreshingly cool.13 mph57%30.21 "Hg16 mi
4:00 PM58 °FCool.12 mph62%30.21 "Hg25 mi
3:00 PM59 °FCool.10 mph61%30.20 "Hg14 mi
2:00 PM60 °FRefreshingly cool.8 mph53%30.19 "Hg25 mi
1:00 PM58 °FRefreshingly cool.6 mph57%30.19 "Hg15 mi
12:00 PM55 °FCool.5 mph67%30.19 "Hg25 mi
11:00 AM53 °FCool.6 mph66%30.18 "Hg11 mi
10:00 AM49 °FCool.3 mph72%30.16 "Hg25 mi
9:00 AM44 °FQuite cool.1 mph88%30.15 "Hg19 mi
Weather by CustomWeather, © 2015

See weather overviewHow to use our weather pages